Location: LDNL
(36.4545°S, 141.6685°E)
Time: 03:54:57
(UTC+11:00)

A-11 Canister half - Pass Details

Date: 11 August 2022
Orbit: 1524 x 1684 km, 47.3° (Epoch: 05 October)

Event Time Altitude Azimuth Distance (km) Brightness Sun altitude
Rises 19:33:36 0° 276° (W) 4,691 13.2 -19.9°
Reaches altitude 10° 19:36:48 10° 270° (W) 3,704 12.2 -20.5°
Maximum altitude 19:45:47 50° 196° (SSW) 1,888 9.5 -22.3°
Enters shadow 19:51:16 25° 133° (SE) 2,719 9.9 -23.4°
Drops below altitude 10° 19:54:54 10° 121° (ESE) 3,742 - -24.2°
Sets 19:58:09 0° 116° (ESE) 4,742 - -24.8°
